Wind_Speed
16 16 16 17 17 17 17 16 16 16 15 15 15 16 16 17 18 18 19 18 17 17 17 18 18 18 18 19 20 22 23 25 25 24 23 14 8 10 13 16 20 18 16 17 18 17 16 18 19 18 17 16 14 13 15 14 12 9 4 5 9 5 6 7 8 7 6 6 6 9 16 11 7 11 8 6 3 3 6 8 7 5 5 3 5 16 26 29
16 16 17 17 17 17 18 17 17 18 17 17 16 16 16 16 16 17 19 20 19 17 16 18 19 19 19 19 20 21 23 25 26 28 20 8 6 7 9 14 19 21 20 20 20 18 16 15 17 16 15 14 11 12 14 14 15 10 3 5 10 5 6 10 11 9 8 7 7 10 14 11 9 9 5 3 1 7 8 9 11 14 14 13 16 23 28 29
17 18 18 17 18 18 18 18 18 18 18 18 18 18 17 16 16 16 18 19 20 20 18 17 18 20 19 18 20 21 23 24 27 28 12 7 8 3 7 14 19 22 23 22 21 19 15 12 12 13 15 13 11 13 13 12 13 9 5 6 8 4 5 10 13 14 13 11 9 9 9 8 9 6 5 3 2 5 6 7 11 18 21 22 24 28 29 30
17 18 18 18 18 17 18 18 18 18 18 19 19 18 18 18 17 16 17 18 20 20 20 19 18 18 18 18 19 19 21 21 23 19 10 14 8 3 6 13 17 20 23 23 21 19 15 13 11 12 13 10 12 13 10 13 11 6 7 5 4 5 4 8 12 16 19 17 12 7 5 5 7 7 5 2 1 2 6 14 14 18 26 27 29 31 31 32
17 18 18 17 17 17 18 18 19 19 19 19 19 18 18 18 18 18 17 17 18 19 20 21 20 18 18 18 17 17 16 11 7 7 19 16 7 4 4 8 11 16 21 23 21 19 16 14 12 12 11 6 9 10 7 17 13 3 6 5 3 5 4 7 13 15 17 17 10 4 5 5 6 6 4 2 4 4 4 13 17 20 25 25 30 33 33 35
17 18 17 17 17 17 17 18 19 19 19 20 19 19 19 18 19 19 18 18 18 18 18 19 20 19 18 17 16 14 8 5 3 13 21 10 3 1 7 8 4 11 20 22 21 19 17 15 13 11 8 3 8 8 5 19 17 4 4 6 5 6 4 7 13 16 15 12 8 5 6 6 5 4 3 1 4 3 3 9 18 22 23 24 30 35 35 37
18 18 18 18 17 17 18 18 19 20 20 20 19 19 19 20 20 20 20 20 19 17 17 18 19 18 19 18 15 12 11 16 11 14 17 5 7 6 8 7 3 6 16 20 20 19 17 16 14 10 7 3 6 7 6 14 17 10 3 2 7 10 8 7 9 15 17 14 13 9 5 4 4 3 2 1 1 3 4 6 20 25 25 27 32 35 35 37
18 19 19 19 19 19 19 19 20 21 21 20 20 19 20 22 22 22 21 21 20 18 16 16 17 16 19 19 13 12 18 21 12 9 15 16 16 14 11 5 2 2 10 16 17 17 16 16 16 11 5 4 5 7 9 9 9 11 7 2 4 9 13 14 11 12 15 15 18 13 7 7 6 2 1 1 1 1 0 10 24 28 29 31 33 35 35 36
19 19 20 20 20 20 20 20 21 21 21 21 21 20 21 22 22 23 23 21 21 19 17 16 15 15 16 18 13 10 21 19 14 14 21 22 21 19 13 6 1 1 4 12 15 14 15 14 17 14 5 6 6 5 11 10 6 7 9 6 4 6 12 17 17 16 14 13 13 9 7 11 9 4 1 0 4 7 11 20 28 30 31 32 33 34 35 36
20 20 20 20 20 21 21 21 22 22 22 22 23 23 22 22 22 23 23 23 21 19 19 16 14 14 15 17 10 7 16 13 9 12 15 19 21 16 8 6 4 3 2 7 11 12 13 11 15 16 6 5 6 5 8 9 5 5 11 13 11 11 13 10 12 17 17 14 11 6 5 10 10 8 3 4 12 16 21 26 30 32 33 33 33 34 34 34
20 21 21 21 22 22 22 23 23 23 23 23 24 24 24 23 23 22 22 24 24 21 19 17 14 14 17 17 12 15 16 7 6 14 14 16 18 15 9 7 8 6 7 5 7 10 12 12 11 12 7 4 5 5 8 10 7 5 9 10 12 14 16 13 7 9 10 9 12 11 6 8 7 6 6 12 19 22 27 29 30 31 32 32 32 33 34 34
21 22 23 23 24 24 24 24 24 23 24 24 25 25 24 25 25 24 23 23 24 22 21 18 14 14 18 20 28 30 20 11 16 23 21 19 20 19 15 13 12 9 10 9 6 8 12 14 12 11 8 4 4 2 7 13 11 8 4 4 6 9 13 16 13 10 7 3 8 11 5 7 5 4 10 20 25 26 29 31 30 30 31 32 32 34 35 34
22 23 24 24 25 25 25 24 24 24 24 25 25 26 26 26 25 25 24 23 22 22 21 19 16 16 17 22 34 34 24 22 27 26 21 20 22 24 20 16 14 11 12 11 8 9 10 12 12 16 12 4 2 1 2 5 9 8 3 4 3 4 7 13 16 13 9 5 7 11 3 6 5 6 13 24 29 29 28 30 31 30 30 32 33 35 35 36
22 23 24 24 25 25 25 23 23 24 25 25 25 26 27 27 26 24 23 23 23 21 20 19 16 16 18 26 34 31 27 25 21 15 13 12 17 23 20 16 14 14 13 12 10 9 10 8 7 14 15 11 7 4 5 2 4 5 3 3 4 4 5 8 13 12 8 8 11 12 3 7 6 7 16 28 32 32 28 28 31 30 31 32 34 35 35 36
22 23 24 25 24 24 23 23 24 25 25 25 25 27 28 27 27 24 22 24 24 21 19 18 16 14 16 28 33 26 19 15 9 7 9 8 8 14 14 14 15 13 12 13 11 9 10 7 6 8 9 12 11 5 4 2 1 3 5 4 5 5 5 4 9 13 11 8 12 12 4 6 6 7 19 30 33 33 32 30 30 32 32 33 35 35 35 36
23 24 25 24 24 24 24 24 24 25 25 26 27 28 28 27 27 24 22 24 24 20 18 17 17 14 12 18 21 15 12 11 6 5 7 9 7 5 6 10 11 10 12 13 11 10 9 6 6 7 5 6 7 1 2 0 2 3 6 5 6 7 3 3 4 10 16 9 8 10 4 4 5 7 18 25 28 31 31 29 30 33 34 34 35 35 36 35
24 25 24 24 24 24 25 25 25 26 26 27 28 28 27 26 23 22 19 18 18 15 14 14 12 12 15 16 14 13 12 9 8 9 10 10 7 4 3 5 7 9 12 13 12 11 8 7 5 6 6 3 3 5 3 5 6 3 3 2 4 7 5 4 3 5 15 12 8 7 6 6 4 7 19 22 24 25 27 28 29 34 34 33 34 34 36 38
25 24 23 23 24 24 25 25 26 26 25 27 27 27 26 21 18 17 14 12 9 4 7 11 8 5 13 18 17 19 14 8 11 14 12 7 6 6 5 4 5 8 11 11 12 11 8 8 6 3 4 5 4 7 7 7 6 4 4 4 2 5 7 8 4 3 11 12 10 7 7 8 3 5 16 21 24 23 26 29 31 34 34 33 33 34 36 39
25 23 22 23 23 24 25 25 26 25 25 26 25 25 22 17 15 11 7 6 3 2 2 9 13 7 7 11 12 13 13 14 17 19 13 4 3 6 5 6 6 6 9 7 7 12 9 5 6 5 6 9 8 9 8 3 7 8 6 5 5 6 6 8 6 5 9 10 8 8 8 8 3 6 12 17 22 21 22 24 26 30 31 31 33 33 35 38
24 23 23 23 23 25 25 25 25 23 24 24 24 23 18 14 11 5 5 11 11 11 12 14 20 21 20 22 21 19 21 23 22 20 13 3 0 3 4 7 6 6 7 5 5 10 11 5 6 7 6 8 7 8 8 2 5 9 7 5 6 6 5 7 6 6 7 7 7 8 8 8 8 9 11 15 16 14 15 16 19 25 27 30 33 33 34 36
24 23 23 23 24 25 25 24 23 21 21 20 20 18 12 10 6 5 12 18 19 17 20 22 23 29 32 33 33 29 25 21 21 22 16 9 7 3 5 9 5 4 5 5 4 7 10 8 7 7 5 8 8 7 8 4 3 5 7 6 5 5 5 7 7 6 6 5 5 7 9 9 8 9 10 13 12 10 15 18 20 25 27 29 32 33 33 31
24 23 23 23 25 25 24 23 20 19 17 16 16 14 11 9 6 10 14 14 20 21 22 26 27 32 35 34 33 29 21 15 20 25 16 10 14 8 8 9 5 4 5 5 4 5 8 7 6 7 4 8 9 7 9 8 1 2 3 6 5 4 4 4 5 5 6 5 4 7 10 6 4 4 6 10 11 11 18 23 25 28 28 30 33 33 32 30
24 23 23 23 25 26 23 20 19 16 13 13 15 13 10 8 7 12 13 11 21 24 21 25 27 31 33 32 29 23 17 12 14 23 15 8 15 15 12 7 4 5 6 8 7 6 6 5 7 7 5 8 9 9 10 8 2 2 2 5 5 4 3 3 4 4 5 3 3 7 6 1 2 1 2 7 9 7 13 19 22 24 27 30 33 32 32 32
25 25 23 23 25 26 22 19 16 12 11 12 14 11 7 9 9 12 11 7 12 15 16 17 20 25 25 22 18 17 19 15 12 15 12 11 16 15 11 7 6 5 7 10 8 5 4 4 10 9 6 8 9 10 12 8 4 2 2 4 4 4 6 5 2 4 4 2 4 8 3 1 1 4 4 4 5 4 9 13 14 18 22 24 26 27 29 32
25 26 25 24 24 25 22 18 13 10 12 13 11 9 9 10 10 10 8 5 6 8 9 8 10 14 10 8 11 15 15 16 20 16 7 13 17 10 7 8 7 6 8 9 6 4 4 5 11 12 7 7 8 9 11 9 5 2 3 6 5 6 7 4 3 5 5 1 2 6 4 4 3 6 7 4 4 6 8 10 12 15 18 20 24 28 29 30
26 26 25 24 23 23 21 17 12 12 14 11 8 9 9 9 8 7 4 3 5 3 2 2 5 3 1 5 11 12 6 9 19 20 11 12 17 12 6 6 6 5 7 7 4 3 3 5 6 11 10 8 7 7 10 11 7 3 5 7 6 5 3 3 5 5 5 4 4 4 6 3 3 6 8 7 8 9 7 8 12 15 17 21 26 28 29 30
27 26 25 24 22 22 20 16 15 15 13 8 7 9 7 5 6 5 2 2 4 1 2 3 4 2 2 6 9 10 3 3 6 15 19 16 15 13 7 5 4 4 6 6 4 2 6 7 4 8 11 8 7 6 8 11 8 3 6 7 7 4 3 3 6 4 3 3 3 2 5 3 2 6 8 9 9 8 7 8 11 16 20 23 25 27 28 31
26 26 25 23 21 20 18 17 17 14 9 6 7 7 5 4 4 2 2 2 1 2 2 4 5 4 4 5 12 14 5 4 3 7 20 19 13 9 5 5 5 6 7 7 5 3 7 10 6 7 10 7 6 5 7 11 7 5 6 7 7 6 4 4 6 3 1 2 3 4 3 4 4 4 3 8 9 9 11 11 11 16 22 24 26 28 28 30
26 25 25 22 22 20 16 17 15 11 7 5 6 5 4 3 2 2 1 1 1 2 1 2 2 4 3 3 13 18 10 5 3 2 14 19 15 7 2 6 6 5 8 7 5 2 5 13 11 7 7 6 6 5 9 11 6 5 6 6 3 2 4 4 4 2 2 1 5 6 4 4 4 4 2 6 8 10 11 11 12 17 23 24 26 28 28 29
26 25 24 23 22 18 13 14 11 7 6 6 4 4 4 1 1 1 1 2 1 1 1 1 1 2 3 3 6 11 8 4 6 2 12 15 15 9 3 7 7 4 5 5 5 5 2 10 13 6 4 6 8 6 8 11 7 5 7 5 4 3 3 3 2 3 2 3 5 7 6 5 3 4 3 6 8 11 11 10 12 15 21 24 25 27 28 28
26 25 24 22 20 15 13 12 9 6 6 5 4 3 2 1 2 1 3 1 1 1 1 2 2 1 2 3 2 4 4 3 6 2 8 8 8 7 3 5 4 4 4 4 5 7 5 4 7 6 8 9 10 7 6 10 10 7 5 5 5 2 3 4 3 2 3 5 6 6 6 5 3 5 5 8 10 14 14 12 13 15 20 25 25 26 28 28
26 25 24 20 15 13 11 9 8 8 5 4 5 3 1 1 1 3 3 2 2 2 1 1 2 2 3 3 1 2 3 3 4 1 3 5 6 5 5 5 3 5 5 4 5 6 6 4 3 6 13 13 10 7 5 7 9 7 5 5 6 2 1 2 2 1 4 5 4 6 6 3 5 6 7 12 12 13 14 16 18 18 21 26 25 26 27 28
27 25 21 14 11 10 7 6 8 8 5 5 6 2 2 1 2 4 3 1 2 2 1 2 4 4 4 1 0 4 3 1 4 3 1 4 7 6 7 5 3 4 4 5 6 4 3 3 4 6 10 13 12 9 7 6 9 10 7 6 6 4 4 5 3 1 3 3 3 3 4 2 4 4 7 13 14 16 20 21 18 15 20 26 25 26 27 28
27 22 16 8 6 6 4 7 9 8 7 7 4 1 2 3 4 4 3 3 3 2 2 3 4 4 4 3 1 4 3 1 3 4 2 4 6 6 5 5 4 2 4 5 4 5 4 2 7 7 6 12 13 9 7 6 7 7 4 5 5 3 5 4 3 3 3 1 2 1 3 4 3 4 6 10 11 13 17 16 11 11 18 23 24 26 28 30
24 17 10 5 3 4 4 7 9 8 8 7 2 2 3 3 3 3 3 3 2 2 4 4 2 1 2 2 2 3 2 1 2 2 2 4 6 6 5 6 7 2 4 6 2 4 4 3 6 7 6 12 11 5 6 8 5 4 3 6 4 4 5 3 3 5 4 2 0 1 3 4 4 4 3 3 5 6 10 12 14 16 20 24 24 26 29 30
21 10 5 6 4 5 7 7 9 9 8 5 2 2 3 3 3 2 2 3 2 2 5 4 1 2 1 0 1 2 1 2 4 3 2 4 5 7 6 4 6 4 4 5 3 4 4 3 5 8 6 11 13 8 6 8 6 3 4 6 5 4 6 5 2 1 3 4 2 2 3 3 2 3 5 2 3 5 9 12 14 19 24 25 25 27 29 30
18 7 8 8 5 7 9 8 9 9 8 4 2 4 3 3 4 3 3 4 3 2 3 2 1 2 1 1 1 3 3 3 6 4 2 4 4 6 5 3 5 7 6 5 2 4 5 2 6 10 7 10 18 15 6 6 7 5 5 7 3 4 3 4 2 3 4 4 3 1 4 2 0 2 4 3 5 5 7 9 11 17 24 24 25 28 30 31
12 7 9 11 8 7 9 7 6 8 6 2 4 7 3 3 4 3 4 6 3 1 2 0 1 1 2 2 2 4 3 2 6 4 2 3 3 5 6 3 5 8 8 5 1 2 4 1 4 9 9 6 12 14 6 5 5 5 6 5 4 4 2 1 3 1 3 4 2 1 2 3 4 4 2 4 8 9 8 8 10 14 19 22 25 28 29 29
6 5 9 14 12 9 6 4 5 6 3 1 4 5 2 4 8 8 8 8 3 1 2 1 1 1 1 2 2 4 3 2 5 4 2 3 2 5 7 4 4 7 7 7 3 2 2 3 1 6 9 6 6 8 8 7 3 2 6 5 2 4 4 2 3 3 3 3 3 1 1 3 5 6 6 10 12 12 11 10 11 14 20 24 27 30 32 32
4 3 8 15 16 10 4 5 6 4 2 2 4 4 3 5 8 12 14 7 2 1 2 2 2 1 0 1 1 3 3 2 3 2 2 2 2 3 7 6 4 5 7 7 4 1 1 2 3 3 4 7 6 7 10 10 5 4 6 6 3 2 3 3 1 1 3 3 3 3 1 5 6 5 8 11 13 14 15 15 13 14 21 27 30 32 35 35
6 2 6 14 15 8 5 6 5 3 2 3 3 3 7 7 6 12 15 6 3 3 2 2 3 2 0 1 2 2 2 2 3 3 1 2 2 2 7 11 5 4 6 4 3 2 0 1 3 4 4 6 7 5 6 9 8 5 4 4 5 4 4 4 2 1 2 2 3 5 2 7 6 3 5 7 9 12 13 13 11 16 25 28 30 33 35 35
7 2 5 12 12 6 6 5 3 3 2 4 6 7 11 11 6 8 10 4 3 3 2 2 3 2 1 0 2 0 2 1 1 2 1 3 6 4 9 16 11 5 6 3 2 4 3 2 2 3 4 5 5 4 8 10 8 5 3 4 5 4 5 6 4 3 1 1 1 4 2 6 5 3 3 3 6 8 8 5 5 13 23 26 29 32 32 33
7 3 5 9 7 5 3 2 3 3 3 6 10 11 12 8 4 5 7 4 2 2 1 1 2 2 2 2 2 2 3 1 0 2 1 2 6 8 11 17 14 7 5 3 2 4 3 1 1 2 1 1 2 3 7 9 8 5 4 4 5 5 5 6 4 4 3 2 1 2 2 5 5 5 2 4 7 9 10 11 11 13 18 23 27 30 29 31
8 6 7 8 4 4 4 1 3 5 6 9 10 10 9 5 3 6 7 5 4 2 1 2 2 3 2 2 3 3 3 1 0 3 2 0 4 8 12 17 14 6 4 4 4 5 4 1 2 4 4 3 4 4 4 6 7 6 5 4 6 7 7 5 2 2 2 4 4 4 4 6 5 4 1 5 8 8 9 15 19 19 20 24 28 29 29 29
8 5 8 9 5 3 5 2 2 5 8 10 9 9 8 5 5 9 8 6 4 1 1 3 3 3 2 0 2 4 2 3 1 1 1 1 2 4 10 18 16 7 6 7 5 6 4 1 3 5 6 6 5 4 4 5 6 4 5 7 7 8 9 5 2 3 2 3 4 5 5 6 4 2 3 5 8 7 8 16 21 21 23 26 28 30 29 28
6 2 7 11 6 3 6 6 4 4 6 8 7 7 8 8 10 10 6 3 5 4 2 3 3 2 2 2 2 3 3 1 1 1 1 1 3 1 4 14 16 11 12 12 5 4 1 1 3 5 6 7 7 5 2 5 6 5 7 10 8 8 9 6 5 4 4 3 3 6 6 4 5 1 4 4 6 7 7 12 18 22 25 27 28 29 29 28
4 1 4 8 6 4 7 7 5 5 8 8 4 5 9 10 9 8 6 3 7 9 3 2 4 6 4 5 3 2 5 4 2 3 2 2 3 2 3 8 10 12 13 11 7 2 2 2 4 6 7 7 6 7 7 8 8 7 9 11 9 8 9 7 5 5 5 6 4 8 4 4 7 5 7 6 7 8 8 10 17 22 26 28 29 29 30 30
6 2 3 6 5 3 4 7 9 10 11 9 3 4 10 12 9 8 6 5 7 9 4 1 6 10 9 8 3 2 4 4 4 4 3 3 3 3 5 6 3 9 8 5 4 3 3 3 4 6 6 5 3 10 13 10 7 8 11 12 9 9 11 10 9 7 7 7 6 7 7 7 8 4 6 6 5 6 8 13 19 24 26 27 29 29 29 31
7 3 5 8 6 6 9 13 14 11 9 8 4 4 9 11 10 8 5 5 6 5 3 3 6 10 10 8 3 3 3 3 3 3 3 4 4 3 5 3 4 7 4 3 3 2 2 3 4 5 2 3 2 8 14 12 8 7 9 11 11 11 12 11 8 6 5 4 5 4 7 8 7 3 3 4 5 9 12 17 21 24 26 28 30 30 29 30
9 6 9 11 8 10 12 12 10 7 6 6 5 5 8 9 10 10 6 4 5 5 4 5 8 8 7 7 4 2 2 2 2 3 3 5 4 3 4 2 2 5 4 2 1 2 1 3 2 3 4 5 5 2 11 13 9 6 5 5 9 9 7 5 4 4 3 2 2 3 2 6 6 3 3 5 11 15 15 17 21 24 26 28 29 30 30 30
10 10 10 10 7 7 9 8 6 4 4 4 5 7 8 9 11 12 8 5 5 5 6 8 11 9 5 5 4 1 4 2 3 6 6 4 3 3 2 1 1 4 5 2 1 1 1 2 0 4 5 2 4 2 9 11 10 8 4 4 8 8 6 4 3 5 6 4 4 5 1 5 5 2 4 7 12 12 11 16 20 23 26 29 29 29 31 32
14 15 13 7 5 5 6 6 5 4 3 4 7 9 9 10 12 12 6 3 5 8 9 9 10 7 4 4 3 4 8 9 11 14 12 10 9 8 8 7 3 2 3 2 2 2 2 2 1 3 4 1 4 2 9 10 9 4 2 5 7 4 4 4 1 2 5 6 7 4 5 6 4 5 5 7 9 9 10 17 22 24 25 28 29 30 33 35
Wind_Direction
348 347 346 345 345 342 341 340 338 336 335 333 331 328 329 331 328 326 327 324 316 306 298 296 301 308 311 313 310 307 304 300 302 298 290 290 306 289 272 263 250 234 221 224 227 224 222 223 223 223 221 214 216 211 202 199 185 183 172 213 225 200 193 179 170 185 166 198 205 194 208 196 216 247 246 273 295 116 95 81 88 136 181 207 187 179 172 165
345 345 344 343 342 340 340 339 338 337 335 334 330 327 325 325 324 323 324 324 324 319 304 289 288 296 305 310 311 309 303 302 301 293 288 277 258 270 278 270 250 230 221 222 221 219 219 221 220 217 211 203 205 201 197 197 191 190 144 207 225 192 175 176 176 179 166 196 205 210 218 199 213 235 213 244 196 128 97 76 95 104 115 139 157 167 169 166
345 345 343 341 341 340 339 337 336 334 333 333 331 331 328 323 322 321 322 320 320 323 319 305 289 288 294 305 309 308 308 308 301 292 277 201 214 260 285 270 251 229 220 220 218 216 216 211 210 207 200 197 197 191 191 192 194 206 186 215 233 185 180 189 183 187 191 205 216 225 223 204 215 213 185 197 162 156 148 136 123 118 130 144 157 167 169 167
345 343 341 339 340 340 337 336 336 332 331 331 330 331 328 326 323 319 319 317 318 319 321 318 306 294 287 297 306 309 315 313 302 286 213 181 196 206 269 269 253 234 219 219 214 209 210 202 195 192 189 194 196 191 196 191 185 200 196 213 220 164 190 210 193 197 204 211 222 224 202 207 221 214 224 211 150 267 203 181 171 155 156 158 164 170 170 169
343 340 338 338 338 339 337 337 335 334 333 330 329 328 326 325 322 320 318 314 315 315 317 318 317 312 294 289 297 311 323 323 312 213 180 176 183 190 317 299 254 232 218 215 208 201 204 197 187 184 184 183 187 193 211 199 189 193 213 221 196 162 183 212 201 205 211 214 224 211 180 209 227 233 261 226 191 253 220 193 199 188 179 177 174 173 172 172
343 341 339 338 337 337 336 336 335 335 335 332 329 326 324 323 320 321 318 314 312 311 313 313 315 320 310 294 287 307 315 266 252 172 171 168 180 200 3 348 260 214 210 207 202 199 199 192 183 182 180 176 195 200 200 199 201 221 234 219 204 191 188 208 208 214 219 214 216 206 211 219 215 251 282 188 189 245 277 215 213 203 194 191 180 175 175 176
343 342 341 339 337 336 336 336 335 334 336 335 332 327 325 323 321 320 318 315 311 308 309 308 312 316 317 304 283 295 271 257 266 183 179 242 285 303 341 346 5 188 195 195 197 200 200 191 186 181 168 181 212 210 198 198 209 225 246 215 211 212 212 223 216 220 227 226 228 224 232 225 182 230 259 83 143 284 322 206 200 195 187 185 179 178 180 180
343 342 341 340 338 336 336 335 334 333 334 334 333 330 327 324 320 318 317 316 313 312 309 305 309 309 313 311 303 300 265 264 294 218 226 268 274 286 300 301 17 148 177 186 195 200 201 194 188 182 167 211 205 195 203 205 221 224 226 234 220 219 220 233 241 234 233 236 241 241 245 241 226 239 299 21 70 209 180 172 183 182 177 180 180 181 181 181
342 342 341 340 337 335 334 332 331 331 330 329 329 328 327 324 320 318 316 315 313 312 312 309 304 303 306 306 313 298 265 275 313 275 259 265 268 281 285 254 226 64 168 189 196 199 202 198 193 187 180 221 206 193 197 200 232 215 206 221 238 244 231 233 242 246 247 247 242 239 249 251 242 237 324 255 161 153 161 167 173 175 175 179 183 183 183 184
341 341 340 337 334 332 330 329 327 328 327 325 325 324 322 319 317 318 315 313 311 308 311 310 300 296 292 293 300 274 270 290 323 297 278 267 267 272 263 240 247 298 292 210 203 206 205 202 200 197 208 229 208 218 199 191 220 199 193 212 224 242 249 242 239 244 248 252 240 215 245 255 231 217 226 164 161 158 158 161 169 174 176 181 184 185 186 188
339 338 337 335 334 333 330 329 328 327 325 322 322 319 317 315 313 314 314 311 308 305 306 306 299 284 280 280 259 247 265 281 330 326 308 279 269 258 243 243 251 273 296 269 216 214 209 202 199 199 214 233 204 229 232 218 233 230 192 206 222 229 247 250 244 247 240 248 236 212 236 256 220 211 202 168 163 164 160 160 169 174 177 182 183 186 188 191
337 336 337 336 334 332 330 329 327 326 323 320 319 316 314 311 310 311 311 309 304 302 301 303 297 274 276 271 253 252 259 269 298 306 295 281 270 259 254 246 243 259 286 282 225 205 208 206 207 210 210 206 188 197 247 233 230 247 194 175 224 214 238 240 235 240 215 239 228 195 238 260 209 213 189 169 166 168 164 163 170 177 180 182 184 187 190 194
336 336 335 334 332 329 328 326 325 324 322 320 318 315 313 309 309 309 306 304 300 296 293 296 291 271 272 267 259 264 275 284 292 295 289 280 266 257 256 244 236 246 268 268 221 192 201 211 218 226 227 220 204 161 294 233 205 219 186 153 205 200 239 227 221 227 204 227 210 169 227 259 233 244 184 168 167 167 164 165 172 178 182 184 186 189 191 195
335 334 331 330 329 327 326 326 324 322 320 319 317 313 312 310 311 309 304 299 294 288 285 285 281 267 264 263 266 278 287 288 291 301 309 295 265 255 251 241 239 247 252 246 222 194 193 204 213 228 238 241 257 311 352 332 177 170 152 176 187 189 255 219 198 196 190 227 201 169 241 255 260 261 183 171 170 168 167 171 175 179 183 186 188 190 193 196
331 330 329 329 328 327 326 324 322 320 318 316 314 313 313 313 314 310 302 291 285 280 275 274 267 256 263 269 274 286 286 275 286 330 346 340 289 254 239 232 240 244 238 235 225 199 190 202 207 219 244 239 245 300 352 337 326 157 173 195 184 191 271 256 191 181 186 215 188 175 242 256 260 240 184 176 173 171 171 175 178 181 184 187 189 191 194 197
329 328 328 329 329 327 325 322 320 319 317 314 313 313 313 316 315 310 300 288 283 275 262 262 257 242 256 276 284 290 264 250 277 330 335 335 316 266 224 224 231 224 223 230 223 211 210 218 220 213 224 226 212 175 56 1 277 228 198 187 180 189 237 278 231 186 183 187 186 189 209 252 260 204 182 180 178 175 173 176 180 183 186 189 190 192 194 197
329 326 326 330 329 326 323 321 319 316 314 314 313 314 318 319 315 310 306 295 288 275 250 248 250 240 248 266 283 278 257 256 277 293 310 314 297 280 268 223 202 195 208 219 222 226 222 206 202 204 210 214 159 142 153 205 214 231 190 156 169 177 172 202 271 203 181 185 198 193 200 237 278 181 179 183 183 180 176 177 180 184 189 191 191 193 196 198
328 326 326 328 326 323 321 319 316 314 315 316 315 318 322 321 316 313 309 305 299 273 231 230 224 244 254 255 264 263 264 276 273 285 307 309 271 265 272 240 196 181 191 204 220 219 204 196 186 158 188 202 182 171 185 198 181 157 154 149 135 155 174 192 223 212 176 187 194 172 198 235 302 170 183 185 184 183 183 183 184 187 189 191 193 195 197 199
326 325 324 324 322 320 320 318 315 315 317 318 319 322 324 321 320 319 308 318 329 150 211 213 202 213 257 259 264 266 276 286 286 294 303 305 266 265 249 234 225 190 177 180 206 200 182 172 180 179 192 197 194 181 190 186 144 153 157 153 153 152 188 199 208 213 169 176 194 165 187 219 193 184 194 189 186 186 189 188 186 188 189 192 195 198 199 201
325 323 322 321 320 319 321 320 316 316 318 321 324 327 334 338 337 332 291 295 282 260 261 241 223 233 256 269 273 281 287 288 289 287 284 277 335 293 227 211 208 193 182 161 178 187 175 180 205 201 195 187 186 176 193 230 121 146 150 155 165 153 192 206 200 209 160 158 199 172 178 205 191 192 195 188 186 184 186 186 187 189 191 195 198 201 203 203
325 324 323 323 322 321 322 322 319 318 318 321 325 330 342 346 338 310 304 298 287 273 260 256 247 245 257 267 271 278 286 291 287 275 271 253 243 270 198 184 169 190 188 145 151 173 177 206 213 194 184 171 167 165 192 236 61 122 150 164 180 164 190 207 198 202 169 165 204 173 177 204 204 197 189 181 182 188 188 185 188 191 194 198 200 203 205 206
325 324 324 324 324 322 323 324 322 320 320 321 320 324 325 319 299 296 309 299 289 283 264 262 259 252 258 263 265 272 276 281 283 279 278 239 223 214 173 171 171 178 160 147 161 174 196 218 187 174 173 154 153 157 187 213 180 73 131 149 180 196 188 204 213 200 170 177 212 178 178 204 233 197 178 186 192 198 196 193 194 194 194 198 201 204 205 205
324 323 322 324 324 322 322 323 323 320 320 320 316 318 313 305 296 300 309 295 292 289 267 258 253 250 256 260 262 261 253 251 270 276 273 202 195 192 174 164 173 161 155 184 189 175 205 210 160 166 158 142 152 159 178 208 193 103 104 135 179 220 176 179 224 189 153 154 162 160 168 197 0 108 181 209 207 205 200 201 204 201 199 200 202 204 205 205
324 323 323 325 324 322 321 323 325 320 318 319 316 314 304 299 298 308 311 282 286 291 276 266 254 250 255 261 261 239 231 230 234 260 257 193 183 184 181 163 155 173 183 193 191 184 236 214 158 163 160 148 155 163 173 197 206 174 165 158 172 197 184 178 186 148 109 61 117 121 113 304 171 169 208 209 202 207 193 198 211 211 209 208 206 207 207 208
322 323 324 326 324 322 320 323 325 319 319 318 312 308 304 302 301 311 318 278 268 279 281 280 250 249 258 258 245 222 224 233 229 232 221 193 190 176 176 173 162 197 192 175 180 198 259 238 164 163 176 160 158 172 178 182 184 193 213 209 188 172 181 168 123 122 111 168 206 132 138 264 224 196 211 189 187 208 191 195 210 211 209 209 210 210 208 209
322 323 325 325 324 323 320 320 319 315 320 316 310 311 305 310 315 317 328 286 275 260 247 232 206 230 266 216 214 202 205 254 242 229 207 196 197 183 169 176 179 200 171 154 182 195 237 251 175 168 177 165 164 176 181 176 162 187 228 213 190 158 169 137 106 123 153 202 241 169 165 242 263 218 215 197 201 209 195 202 211 210 210 210 211 212 209 209
324 324 325 323 323 323 317 310 307 310 317 314 313 313 306 323 329 326 2 300 280 207 160 196 183 178 259 234 193 165 161 312 261 224 206 192 191 191 182 172 177 178 150 152 198 177 184 216 218 180 175 169 180 181 181 172 154 220 234 186 178 182 194 135 100 124 183 195 262 214 148 156 243 234 209 192 203 213 209 216 214 211 215 215 214 214 211 210
326 324 323 323 319 315 305 292 293 305 312 304 307 307 313 335 325 334 36 316 285 111 175 205 204 226 257 244 188 185 247 332 33 223 204 191 188 186 181 181 163 160 166 171 195 171 172 200 212 181 182 183 180 169 165 157 152 230 221 167 180 198 173 117 95 121 143 125 227 248 167 163 249 272 187 175 197 211 216 220 217 213 214 215 215 216 214 211
328 325 324 324 314 306 294 279 285 305 304 291 299 301 323 342 337 48 82 283 277 140 197 193 234 251 222 192 195 210 255 306 351 230 185 188 195 179 165 191 160 153 180 173 187 197 178 198 196 173 190 188 161 158 158 155 166 203 170 137 149 164 133 111 109 111 55 100 220 225 183 167 260 286 147 165 197 211 217 220 219 215 213 213 213 213 212 208
330 327 326 323 312 304 288 279 287 299 285 278 283 292 316 324 96 37 209 255 330 157 204 229 269 279 181 157 204 223 246 293 311 219 169 181 194 191 183 178 157 139 174 161 188 235 231 197 194 180 190 171 152 167 166 163 168 142 128 109 72 56 79 84 71 84 88 265 245 215 182 156 233 268 184 175 193 199 206 216 217 213 211 211 210 209 208 204
332 328 325 319 309 296 283 288 301 293 274 266 266 274 294 243 142 217 223 263 311 185 225 250 230 318 215 194 216 219 208 265 297 215 167 171 183 198 189 166 156 119 140 144 188 242 274 209 195 173 174 165 150 170 186 175 169 139 128 127 111 70 41 46 15 61 173 244 258 213 172 139 211 253 210 203 206 197 199 209 209 206 205 205 204 203 203 201
334 328 323 316 300 286 282 291 296 291 284 252 256 260 238 261 217 227 238 344 306 214 197 239 206 239 223 190 160 198 185 219 242 208 181 169 162 193 194 181 166 133 162 170 165 224 254 244 236 167 175 178 160 165 190 186 180 168 153 138 136 157 115 149 223 177 195 243 260 188 152 132 238 242 205 207 217 207 203 211 210 201 195 196 197 197 198 197
336 329 324 316 295 292 288 276 274 277 278 255 254 240 182 266 255 224 226 298 256 216 180 239 237 230 208 165 141 211 204 209 195 176 158 162 161 192 201 194 168 128 158 166 151 182 214 235 235 181 176 185 176 169 178 190 188 182 174 158 156 154 161 193 212 125 184 236 277 197 171 198 262 262 204 200 215 215 209 214 215 200 189 190 190 190 192 193
339 334 331 329 311 315 295 267 268 266 261 253 251 231 218 257 255 232 232 234 241 263 264 261 263 244 208 201 219 199 189 315 196 162 144 166 171 191 200 201 204 116 110 145 156 169 165 209 216 195 174 180 186 185 164 146 169 180 151 131 147 152 159 186 191 159 180 223 321 261 191 179 193 244 219 208 229 223 209 208 194 180 184 183 183 186 188 191
343 339 340 9 23 353 316 267 263 264 254 237 226 252 245 258 265 266 268 253 258 300 285 281 280 226 199 204 264 239 202 226 211 171 183 187 177 186 193 202 210 185 134 162 176 167 173 255 217 194 177 173 182 191 140 124 156 190 118 124 175 182 145 126 163 172 158 125 86 210 212 212 203 243 273 246 241 202 177 170 156 160 170 172 177 184 187 189
348 360 33 53 48 1 336 285 262 261 248 225 224 263 242 249 255 262 300 291 280 306 310 306 7 95 132 227 255 238 65 98 173 187 202 183 179 185 187 197 193 179 169 165 148 159 167 271 215 180 187 185 177 178 169 156 161 165 150 170 188 151 119 110 157 158 105 145 235 214 210 287 295 278 329 29 144 149 149 155 154 157 160 166 176 183 186 189
355 45 71 47 27 359 344 309 274 257 237 211 243 263 248 249 244 230 279 297 279 276 310 308 83 95 165 165 139 152 80 85 175 196 178 167 186 181 176 200 174 180 204 180 151 176 158 257 222 176 187 202 177 171 198 192 155 144 185 195 154 103 92 104 126 15 73 167 255 209 186 247 238 251 323 70 132 159 163 159 154 156 161 168 177 181 186 188
5 78 56 22 7 354 347 324 282 254 235 213 262 266 252 244 249 234 275 294 288 248 299 278 175 209 168 130 109 134 103 115 178 195 161 158 196 171 163 201 180 186 208 183 148 238 163 164 245 183 180 196 172 168 199 228 184 156 174 183 143 154 201 103 128 132 125 170 246 288 220 228 194 221 251 166 175 182 174 162 159 164 169 172 174 178 183 185
19 87 29 9 0 359 359 334 297 269 246 247 277 275 261 272 285 294 295 293 283 231 287 325 287 269 180 156 149 125 102 137 177 191 174 155 187 175 171 197 201 188 185 162 156 288 157 129 212 203 180 152 152 175 189 204 219 155 156 164 157 157 171 164 146 155 158 174 196 184 315 257 227 222 202 192 191 180 172 174 177 179 176 172 171 175 180 184
32 70 16 4 1 7 7 319 305 280 237 258 281 283 280 287 295 303 309 306 264 246 278 323 340 326 265 248 194 111 115 197 198 190 187 159 153 172 183 193 198 177 163 162 181 255 10 128 153 194 162 143 173 203 190 179 172 162 163 169 171 108 111 160 170 124 136 151 173 152 223 259 246 218 203 201 191 178 178 184 186 181 175 173 173 175 180 184
33 62 12 3 4 3 327 316 302 266 253 266 269 280 295 305 303 305 316 317 213 242 272 285 308 304 255 323 339 75 125 220 214 180 151 164 158 153 199 201 193 150 149 158 203 207 206 125 147 157 157 170 193 195 167 169 165 155 157 171 170 127 108 150 210 293 106 131 176 153 190 257 255 231 222 206 187 189 191 187 184 177 173 173 174 176 180 182
21 61 7 2 6 353 308 303 296 275 275 297 302 297 296 302 302 301 315 319 207 223 237 252 287 290 158 188 296 234 165 226 232 178 147 189 193 194 203 199 189 163 157 155 207 198 171 121 127 168 191 200 199 156 147 161 154 136 157 177 163 133 122 146 188 231 184 117 161 135 177 253 263 270 247 183 166 181 184 168 156 168 171 170 171 175 178 180
1 343 2 359 356 356 329 278 315 313 271 298 306 299 292 292 285 294 311 330 319 305 315 303 305 279 204 201 267 244 181 169 0 206 213 201 204 207 198 190 183 170 159 156 200 192 172 157 114 135 164 352 6 90 142 154 144 152 201 177 157 165 149 146 171 184 180 194 162 127 235 257 282 292 250 144 131 137 148 150 143 152 164 166 168 173 175 177
336 321 2 19 22 18 17 298 319 333 315 311 312 306 300 277 252 299 316 333 340 354 349 317 266 240 228 194 225 247 211 162 321 238 225 93 214 209 192 183 179 175 179 190 191 178 186 202 101 120 128 85 45 73 137 173 170 181 201 170 168 174 141 124 136 126 175 205 156 145 230 253 283 311 28 119 121 118 133 149 152 153 160 164 168 172 173 173
342 326 350 13 43 53 30 8 296 320 321 321 321 320 321 313 316 323 317 306 313 331 237 272 258 243 274 343 225 263 245 166 173 259 214 322 257 207 181 179 180 191 220 214 170 150 184 221 110 133 154 157 165 165 170 183 174 169 170 166 182 178 156 149 121 114 208 219 141 155 222 260 293 11 89 119 127 125 131 144 152 157 161 165 168 173 174 171
10 2 335 347 359 16 3 346 323 322 323 327 323 322 338 337 329 332 326 299 328 341 267 258 313 296 286 336 349 325 337 127 133 60 65 299 289 329 153 171 181 208 230 230 205 134 126 267 161 158 173 176 178 184 159 135 142 155 163 169 188 187 168 149 115 145 195 168 175 215 214 258 288 176 150 156 137 137 141 144 152 157 161 164 167 172 176 175
32 49 343 343 332 329 345 341 348 343 316 318 320 314 333 335 324 337 351 338 337 339 301 229 356 12 352 332 348 6 348 355 44 43 10 295 281 328 74 134 175 221 235 243 248 186 73 289 219 177 191 205 180 159 149 138 143 151 155 171 191 183 159 146 154 195 168 132 225 250 196 214 255 216 188 190 157 152 160 158 158 158 159 162 166 168 170 173
32 355 339 348 322 302 338 324 324 326 310 307 300 301 330 337 335 343 344 322 330 343 352 324 352 6 356 333 338 18 345 4 35 6 337 331 333 4 68 101 195 246 244 250 252 174 135 255 233 178 196 245 201 157 153 144 143 146 152 168 178 164 162 173 195 205 161 150 223 233 172 198 246 231 193 191 160 152 160 159 156 156 157 161 164 165 164 167
23 350 322 339 322 284 289 295 302 313 314 316 324 328 334 333 332 337 327 311 323 340 5 347 338 355 348 326 345 40 359 20 31 338 342 355 347 36 88 122 252 277 274 240 232 142 133 244 220 169 151 347 331 164 153 142 135 137 154 167 165 162 171 180 191 195 175 195 238 189 174 221 248 225 190 179 137 125 133 145 151 155 160 162 162 164 166 166
16 359 322 322 313 289 287 291 300 309 313 325 335 337 334 326 328 333 318 290 308 325 343 334 324 335 333 325 5 61 262 323 348 298 337 5 0 46 84 132 252 312 324 275 222 119 164 243 213 133 91 29 357 147 150 147 137 117 113 138 144 145 146 149 157 156 160 251 326 91 153 258 263 204 154 139 135 130 133 146 154 159 162 163 163 166 168 168
16 7 338 317 305 303 302 305 313 305 307 344 342 330 334 326 325 327 308 248 247 286 307 315 316 322 324 332 5 184 236 254 248 259 273 292 305 333 349 150 130 329 321 313 313 152 177 236 25 78 87 36 346 74 135 133 117 102 83 112 137 139 136 149 174 169 172 173 96 81 131 262 260 190 124 126 136 138 143 153 157 162 165 165 166 168 170 172
6 3 357 330 294 306 320 319 321 313 316 345 335 328 325 316 317 325 316 259 258 285 299 306 307 315 326 324 329 294 287 283 274 273 270 261 265 275 272 263 258 268 276 307 299 223 154 143 136 96 98 0 327 105 127 114 103 112 212 175 158 152 142 142 165 209 188 156 127 143 227 231 195 149 136 142 150 154 159 162 163 166 167 167 168 170 173 178
Height
1509 1508 1507 1505 1504 1503 1502 1501 1500 1499 1498 1497 1496 1495 1494 1493 1492 1491 1490 1488 1487 1485 1485 1484 1483 1482 1480 1479 1478 1476 1475 1473 1472 1472 1471 1470 1470 1469 1468 1467 1467 1468 1469 1469 1470 1472 1473 1474 1475 1477 1478 1480 1481 1482 1484 1486 1487 1488 1490 1490 1486 1485 1486 1484 1486 1487 1487 1488 1488 1489 1490 1491 1493 1492 1493 1493 1493 1494 1494 1496 1496 1496 1495 1494 1493 1493 1494 1496
1508 1507 1506 1505 1504 1502 1501 1500 1499 1498 1497 1496 1495 1494 1493 1492 1491 1490 1489 1488 1486 1485 1483 1482 1482 1480 1479 1478 1477 1476 1473 1472 1470 1468 1468 1468 1468 1467 1466 1464 1463 1465 1466 1467 1468 1470 1472 1473 1474 1475 1477 1479 1480 1481 1483 1484 1484 1484 1486 1486 1479 1478 1480 1478 1480 1482 1483 1485 1485 1486 1487 1488 1490 1490 1492 1493 1493 1493 1494 1497 1498 1496 1496 1494 1493 1494 1495 1496
1507 1506 1505 1504 1503 1502 1501 1499 1498 1497 1496 1495 1494 1493 1492 1491 1490 1489 1488 1487 1486 1484 1483 1481 1480 1479 1479 1478 1476 1475 1472 1470 1467 1464 1465 1465 1465 1465 1464 1462 1461 1463 1464 1465 1467 1468 1470 1472 1473 1474 1476 1477 1478 1480 1481 1481 1481 1481 1482 1482 1476 1476 1477 1476 1478 1479 1481 1483 1483 1484 1485 1486 1487 1488 1490 1491 1492 1492 1493 1496 1497 1497 1497 1495 1494 1494 1494 1496
1507 1506 1504 1503 1502 1501 1500 1498 1497 1496 1495 1494 1493 1492 1491 1490 1489 1488 1487 1486 1485 1484 1482 1481 1479 1478 1478 1477 1476 1474 1472 1470 1463 1459 1461 1462 1463 1463 1462 1460 1459 1461 1463 1464 1466 1467 1469 1470 1472 1473 1475 1476 1477 1478 1478 1478 1479 1479 1478 1477 1475 1475 1477 1476 1477 1478 1480 1481 1481 1483 1484 1485 1486 1487 1488 1488 1491 1492 1491 1491 1492 1493 1493 1493 1493 1493 1494 1495
1506 1505 1504 1503 1501 1500 1499 1497 1496 1495 1494 1492 1491 1490 1489 1489 1488 1487 1486 1485 1484 1483 1482 1481 1479 1477 1476 1475 1475 1474 1474 1470 1460 1456 1458 1459 1461 1461 1460 1459 1458 1460 1461 1463 1464 1466 1467 1469 1470 1472 1473 1474 1476 1476 1475 1475 1476 1476 1474 1473 1474 1475 1476 1477 1477 1478 1479 1480 1481 1482 1483 1484 1484 1485 1485 1486 1489 1489 1488 1489 1489 1488 1488 1488 1489 1491 1493 1495
1506 1505 1503 1502 1501 1499 1498 1497 1495 1494 1492 1491 1490 1489 1488 1487 1486 1485 1485 1484 1483 1482 1481 1480 1478 1477 1475 1474 1475 1474 1475 1468 1457 1456 1457 1457 1459 1459 1459 1458 1457 1458 1459 1461 1463 1465 1466 1467 1469 1470 1472 1473 1473 1473 1472 1473 1475 1474 1472 1472 1474 1475 1475 1476 1476 1478 1478 1479 1480 1481 1482 1482 1483 1484 1484 1485 1486 1486 1486 1488 1488 1487 1487 1486 1487 1489 1491 1492
1505 1504 1503 1501 1500 1499 1497 1496 1495 1493 1491 1490 1489 1488 1487 1486 1485 1484 1483 1482 1481 1481 1480 1479 1478 1477 1475 1474 1473 1473 1474 1464 1455 1458 1458 1457 1457 1457 1459 1458 1457 1457 1458 1460 1462 1463 1464 1465 1467 1468 1470 1472 1471 1471 1471 1472 1473 1473 1472 1472 1473 1474 1475 1475 1476 1477 1478 1478 1479 1480 1481 1481 1482 1484 1484 1484 1484 1484 1484 1485 1486 1487 1488 1488 1487 1488 1489 1490
1505 1503 1502 1501 1499 1498 1497 1495 1494 1493 1491 1489 1488 1487 1486 1484 1483 1482 1482 1481 1480 1479 1479 1478 1478 1476 1475 1473 1472 1472 1468 1457 1453 1458 1458 1456 1456 1456 1458 1458 1458 1457 1457 1459 1461 1463 1463 1464 1465 1467 1469 1470 1470 1470 1471 1472 1472 1471 1471 1472 1472 1473 1474 1475 1476 1476 1477 1478 1478 1480 1480 1480 1482 1483 1483 1484 1483 1483 1483 1484 1486 1487 1488 1488 1488 1488 1488 1490
1504 1503 1501 1500 1498 1497 1496 1494 1493 1491 1490 1488 1487 1485 1484 1483 1482 1481 1480 1479 1478 1478 1476 1477 1476 1475 1475 1472 1473 1471 1459 1452 1454 1456 1455 1455 1455 1456 1457 1457 1457 1457 1457 1458 1459 1461 1462 1463 1464 1466 1468 1468 1468 1469 1469 1471 1470 1468 1470 1471 1472 1472 1473 1474 1475 1475 1477 1477 1478 1479 1479 1480 1482 1483 1483 1484 1484 1483 1483 1484 1486 1487 1487 1488 1489 1489 1489 1489
1503 1502 1500 1499 1497 1496 1494 1493 1491 1490 1488 1487 1485 1484 1483 1482 1481 1480 1479 1478 1477 1476 1475 1475 1474 1475 1474 1471 1474 1468 1452 1451 1454 1453 1454 1454 1454 1455 1456 1456 1456 1456 1457 1457 1458 1459 1461 1463 1464 1466 1467 1467 1467 1468 1468 1469 1467 1466 1468 1470 1471 1472 1472 1473 1474 1474 1476 1476 1477 1479 1479 1480 1481 1482 1483 1484 1484 1483 1484 1485 1486 1486 1487 1487 1489 1490 1490 1490
1502 1501 1499 1497 1496 1494 1492 1491 1489 1488 1486 1485 1484 1482 1481 1479 1479 1478 1477 1476 1475 1474 1473 1473 1473 1473 1471 1471 1471 1460 1449 1451 1452 1451 1454 1453 1453 1454 1454 1455 1455 1455 1456 1456 1458 1459 1460 1462 1464 1466 1466 1466 1466 1467 1466 1466 1466 1466 1467 1469 1469 1471 1471 1471 1472 1474 1475 1475 1475 1477 1479 1479 1480 1480 1480 1481 1483 1484 1484 1486 1487 1487 1487 1488 1489 1490 1490 1490
1501 1499 1498 1496 1494 1492 1491 1489 1487 1486 1484 1483 1481 1480 1479 1477 1476 1476 1475 1474 1473 1472 1471 1471 1471 1470 1469 1468 1459 1449 1448 1452 1450 1451 1452 1451 1451 1451 1452 1453 1454 1455 1455 1456 1457 1458 1460 1461 1463 1464 1464 1464 1465 1466 1465 1464 1466 1466 1467 1469 1469 1470 1469 1468 1470 1472 1474 1474 1473 1476 1480 1479 1478 1478 1478 1479 1481 1483 1483 1485 1487 1488 1488 1488 1488 1489 1489 1490
1500 1498 1496 1495 1493 1491 1489 1487 1485 1484 1482 1481 1479 1477 1476 1474 1473 1473 1472 1471 1470 1470 1469 1469 1469 1468 1468 1461 1447 1445 1450 1451 1449 1449 1448 1448 1448 1447 1449 1451 1452 1453 1454 1455 1456 1458 1459 1460 1461 1462 1462 1463 1463 1463 1462 1462 1464 1465 1466 1468 1468 1471 1469 1464 1467 1471 1472 1474 1473 1476 1483 1479 1476 1477 1477 1478 1480 1482 1484 1484 1486 1487 1488 1488 1488 1488 1489 1489
1499 1497 1495 1493 1491 1489 1487 1485 1484 1482 1480 1478 1476 1475 1472 1471 1471 1470 1469 1468 1467 1467 1467 1467 1466 1466 1465 1452 1443 1447 1450 1448 1448 1447 1445 1444 1443 1444 1448 1450 1450 1452 1453 1454 1455 1457 1459 1460 1461 1461 1461 1462 1462 1462 1462 1462 1462 1464 1466 1467 1467 1471 1468 1460 1463 1468 1471 1473 1471 1475 1482 1478 1474 1476 1476 1476 1478 1479 1482 1483 1484 1486 1486 1487 1487 1488 1488 1488
1497 1496 1494 1492 1490 1487 1486 1484 1482 1480 1478 1476 1474 1472 1469 1468 1467 1466 1466 1464 1463 1464 1463 1464 1464 1464 1461 1448 1444 1448 1446 1446 1446 1444 1444 1443 1442 1443 1446 1448 1449 1450 1451 1453 1454 1456 1458 1459 1460 1461 1461 1462 1462 1464 1463 1463 1462 1461 1465 1466 1466 1469 1466 1459 1459 1463 1467 1471 1470 1474 1481 1477 1472 1474 1475 1475 1476 1477 1479 1482 1483 1484 1485 1486 1486 1487 1488 1489
1496 1494 1492 1490 1488 1486 1484 1482 1480 1478 1475 1473 1471 1469 1467 1466 1464 1462 1461 1459 1459 1460 1460 1461 1460 1463 1460 1448 1444 1445 1444 1444 1444 1443 1443 1442 1442 1443 1444 1445 1446 1448 1450 1452 1454 1455 1457 1458 1459 1460 1461 1461 1462 1465 1464 1464 1463 1460 1461 1463 1464 1467 1467 1461 1458 1459 1462 1467 1469 1472 1476 1474 1470 1472 1474 1475 1476 1476 1478 1480 1481 1483 1484 1484 1485 1486 1487 1488
1494 1492 1490 1488 1486 1484 1482 1480 1478 1475 1473 1470 1468 1465 1464 1463 1460 1459 1458 1457 1456 1456 1457 1458 1459 1461 1455 1445 1443 1442 1441 1443 1442 1442 1442 1442 1442 1441 1442 1443 1445 1447 1449 1451 1453 1453 1455 1457 1458 1459 1460 1460 1460 1464 1465 1465 1464 1461 1460 1461 1461 1464 1466 1464 1460 1458 1460 1463 1467 1470 1472 1470 1469 1471 1473 1474 1475 1476 1477 1478 1479 1481 1482 1484 1484 1485 1486 1486
1492 1490 1488 1486 1484 1482 1479 1478 1475 1473 1471 1468 1465 1463 1462 1460 1458 1457 1456 1455 1454 1455 1457 1456 1459 1461 1450 1440 1441 1440 1440 1441 1440 1440 1440 1440 1441 1440 1441 1442 1444 1446 1447 1449 1451 1452 1454 1455 1456 1458 1458 1459 1458 1459 1460 1457 1457 1461 1462 1461 1461 1462 1464 1463 1459 1457 1458 1461 1464 1469 1472 1469 1470 1473 1472 1473 1474 1475 1476 1476 1477 1479 1480 1482 1483 1484 1484 1485
1491 1488 1486 1484 1482 1480 1477 1475 1473 1471 1469 1465 1463 1462 1460 1458 1457 1456 1455 1454 1454 1455 1456 1454 1455 1454 1444 1437 1438 1438 1439 1440 1439 1439 1439 1439 1439 1439 1440 1441 1443 1444 1445 1447 1448 1449 1452 1453 1455 1455 1453 1453 1453 1453 1454 1451 1451 1457 1458 1458 1459 1461 1462 1459 1456 1455 1456 1461 1464 1467 1469 1469 1471 1474 1473 1473 1474 1474 1476 1477 1477 1478 1480 1482 1483 1483 1484 1484
1489 1486 1484 1482 1480 1477 1475 1473 1471 1469 1467 1464 1462 1460 1458 1457 1456 1455 1454 1454 1453 1452 1451 1450 1448 1445 1439 1436 1437 1437 1437 1437 1437 1437 1437 1438 1438 1438 1439 1440 1442 1443 1443 1445 1447 1447 1449 1452 1451 1449 1447 1449 1451 1453 1452 1451 1450 1452 1455 1456 1456 1458 1459 1457 1454 1453 1454 1460 1464 1464 1466 1467 1469 1472 1471 1472 1474 1474 1476 1477 1477 1478 1479 1480 1481 1482 1482 1483
1487 1485 1482 1480 1478 1476 1473 1471 1469 1468 1465 1463 1461 1460 1458 1459 1459 1457 1453 1449 1446 1447 1445 1443 1444 1440 1436 1435 1435 1436 1437 1435 1434 1434 1435 1437 1437 1438 1438 1439 1441 1442 1442 1443 1445 1446 1447 1449 1446 1445 1446 1447 1451 1453 1452 1452 1452 1452 1453 1455 1457 1456 1455 1454 1452 1451 1453 1458 1463 1463 1463 1465 1467 1469 1470 1471 1473 1473 1473 1474 1475 1476 1478 1479 1480 1481 1482 1483
1485 1483 1481 1478 1476 1474 1471 1469 1468 1466 1464 1462 1461 1460 1459 1459 1459 1458 1455 1448 1440 1441 1441 1439 1439 1435 1432 1432 1432 1436 1438 1434 1431 1430 1432 1433 1435 1437 1436 1437 1439 1440 1441 1442 1443 1446 1446 1444 1443 1444 1445 1446 1449 1452 1452 1453 1454 1454 1454 1454 1457 1455 1452 1453 1451 1449 1452 1456 1461 1463 1463 1465 1468 1469 1470 1470 1470 1471 1471 1472 1472 1473 1475 1476 1478 1479 1481 1483
1484 1481 1479 1476 1474 1472 1469 1468 1466 1464 1463 1462 1461 1460 1459 1458 1457 1456 1456 1451 1438 1434 1435 1434 1433 1431 1429 1430 1431 1435 1435 1433 1430 1427 1428 1431 1431 1433 1434 1436 1438 1438 1440 1440 1440 1444 1446 1442 1441 1443 1444 1445 1449 1451 1452 1454 1455 1456 1455 1455 1456 1454 1451 1453 1452 1450 1452 1454 1458 1462 1465 1470 1472 1471 1471 1470 1470 1471 1472 1473 1473 1474 1474 1475 1476 1478 1480 1481
1481 1479 1477 1474 1472 1470 1467 1466 1464 1463 1462 1461 1460 1459 1459 1457 1456 1455 1454 1451 1440 1430 1429 1428 1428 1427 1426 1426 1429 1431 1430 1429 1428 1424 1425 1429 1429 1431 1433 1434 1437 1438 1437 1437 1439 1442 1442 1439 1439 1442 1443 1445 1448 1450 1450 1454 1458 1457 1455 1454 1453 1452 1449 1449 1450 1450 1453 1456 1457 1461 1470 1474 1473 1473 1472 1470 1471 1471 1471 1473 1474 1475 1475 1476 1478 1478 1479 1480
1479 1477 1474 1472 1471 1467 1465 1464 1463 1462 1461 1460 1460 1458 1458 1457 1456 1455 1453 1451 1441 1429 1426 1426 1426 1425 1423 1424 1426 1427 1427 1426 1422 1422 1423 1425 1427 1429 1431 1432 1435 1436 1436 1437 1440 1442 1441 1437 1437 1440 1442 1444 1446 1449 1448 1451 1458 1458 1454 1451 1449 1449 1447 1447 1449 1450 1456 1462 1456 1458 1472 1477 1473 1473 1472 1470 1470 1470 1470 1472 1472 1473 1475 1476 1477 1476 1477 1479
1477 1475 1472 1471 1469 1466 1465 1463 1462 1462 1460 1460 1459 1457 1458 1456 1456 1455 1453 1453 1443 1428 1424 1425 1424 1423 1422 1423 1423 1425 1428 1422 1416 1419 1422 1423 1426 1427 1429 1431 1431 1434 1435 1437 1440 1441 1439 1437 1436 1438 1441 1443 1445 1447 1446 1448 1456 1459 1452 1448 1448 1449 1448 1448 1450 1452 1458 1461 1454 1452 1464 1474 1476 1473 1470 1469 1469 1469 1469 1471 1471 1473 1474 1473 1473 1474 1476 1477
1474 1472 1470 1469 1467 1466 1464 1462 1461 1460 1459 1459 1458 1457 1457 1456 1457 1454 1454 1457 1443 1425 1424 1425 1423 1422 1421 1422 1422 1424 1426 1418 1413 1417 1419 1421 1424 1425 1428 1429 1429 1431 1432 1436 1441 1438 1435 1437 1438 1438 1439 1442 1444 1445 1444 1444 1453 1456 1447 1445 1448 1449 1450 1451 1451 1452 1455 1457 1455 1453 1456 1465 1470 1467 1465 1468 1469 1469 1470 1470 1470 1470 1471 1471 1471 1472 1473 1475
1472 1470 1468 1467 1465 1465 1463 1461 1460 1459 1459 1458 1457 1458 1456 1456 1457 1453 1457 1459 1438 1421 1422 1422 1421 1421 1420 1421 1422 1420 1418 1415 1414 1415 1416 1420 1423 1423 1426 1427 1427 1429 1428 1433 1439 1435 1432 1435 1438 1438 1439 1441 1442 1441 1442 1443 1450 1449 1444 1445 1448 1448 1450 1451 1451 1452 1454 1456 1458 1457 1457 1461 1464 1462 1464 1467 1469 1470 1469 1468 1468 1467 1467 1468 1469 1470 1471 1474
1469 1467 1466 1464 1462 1462 1461 1459 1459 1458 1458 1457 1457 1457 1455 1456 1456 1453 1460 1455 1429 1419 1422 1419 1419 1420 1419 1420 1421 1419 1416 1416 1417 1415 1415 1420 1422 1422 1425 1424 1426 1428 1428 1430 1434 1432 1431 1432 1434 1437 1438 1439 1439 1439 1440 1442 1445 1443 1443 1446 1447 1448 1451 1450 1451 1452 1455 1458 1458 1456 1457 1460 1462 1464 1468 1469 1469 1469 1466 1464 1463 1462 1464 1465 1466 1468 1469 1472
1467 1465 1463 1462 1459 1459 1459 1457 1457 1457 1457 1456 1456 1456 1455 1456 1455 1457 1461 1446 1423 1420 1421 1419 1420 1419 1418 1420 1420 1419 1418 1418 1417 1415 1416 1418 1420 1421 1422 1423 1425 1427 1428 1430 1432 1430 1429 1430 1432 1433 1435 1435 1436 1438 1439 1440 1441 1441 1444 1447 1448 1451 1451 1452 1454 1454 1459 1462 1458 1455 1454 1456 1459 1463 1466 1463 1459 1459 1459 1459 1458 1458 1460 1462 1463 1466 1467 1470
1464 1462 1461 1459 1457 1456 1456 1456 1456 1455 1455 1455 1455 1455 1455 1454 1456 1459 1452 1432 1422 1423 1420 1418 1419 1418 1418 1419 1419 1419 1419 1419 1416 1415 1417 1418 1420 1421 1421 1423 1425 1427 1431 1433 1433 1431 1429 1431 1431 1429 1431 1432 1434 1437 1438 1438 1438 1440 1442 1444 1450 1455 1454 1458 1460 1459 1466 1465 1456 1453 1453 1456 1459 1457 1458 1455 1447 1447 1449 1450 1450 1451 1454 1457 1460 1463 1465 1468
1462 1460 1457 1456 1454 1454 1454 1454 1454 1454 1454 1454 1454 1454 1454 1454 1455 1451 1438 1425 1424 1423 1418 1419 1418 1417 1418 1417 1418 1418 1418 1419 1416 1415 1416 1416 1419 1420 1419 1421 1422 1427 1434 1435 1434 1435 1432 1430 1429 1427 1429 1429 1431 1437 1440 1439 1437 1438 1441 1444 1453 1460 1460 1464 1465 1465 1468 1461 1455 1455 1453 1456 1458 1447 1446 1448 1443 1442 1441 1440 1441 1443 1448 1453 1457 1461 1464 1467
1460 1457 1454 1453 1452 1452 1453 1453 1453 1453 1453 1453 1453 1452 1454 1455 1448 1436 1430 1427 1424 1419 1418 1418 1416 1416 1417 1417 1419 1418 1416 1417 1415 1415 1416 1414 1417 1419 1417 1418 1418 1421 1429 1431 1433 1437 1434 1431 1428 1427 1427 1426 1426 1431 1436 1438 1436 1435 1438 1442 1451 1460 1464 1468 1469 1468 1467 1458 1456 1460 1453 1455 1455 1440 1435 1439 1437 1435 1435 1435 1437 1441 1446 1451 1455 1459 1462 1466
1457 1454 1452 1451 1451 1452 1453 1453 1452 1452 1452 1452 1453 1452 1453 1452 1438 1426 1426 1425 1420 1418 1418 1417 1414 1414 1414 1416 1417 1415 1415 1417 1414 1414 1416 1414 1416 1418 1418 1418 1418 1418 1421 1427 1432 1433 1435 1433 1427 1423 1423 1422 1422 1425 1427 1431 1434 1434 1435 1440 1447 1450 1454 1462 1464 1462 1463 1459 1459 1461 1455 1453 1449 1436 1431 1432 1430 1431 1433 1436 1439 1442 1447 1451 1455 1458 1460 1463
1456 1453 1452 1451 1452 1452 1452 1452 1451 1451 1452 1451 1452 1452 1451 1445 1433 1426 1425 1421 1419 1419 1416 1414 1414 1413 1414 1415 1415 1412 1412 1415 1416 1415 1416 1414 1414 1416 1416 1416 1417 1417 1418 1424 1428 1427 1431 1429 1419 1417 1419 1418 1421 1423 1422 1428 1436 1437 1435 1440 1444 1441 1442 1453 1457 1454 1455 1456 1459 1460 1452 1445 1439 1431 1431 1431 1429 1431 1433 1436 1439 1441 1445 1450 1453 1457 1459 1461
1454 1452 1452 1452 1452 1452 1452 1452 1451 1450 1451 1451 1452 1451 1446 1438 1430 1427 1424 1420 1420 1419 1416 1414 1413 1414 1415 1415 1414 1412 1409 1411 1416 1417 1415 1413 1412 1413 1413 1413 1414 1416 1416 1418 1420 1423 1427 1424 1415 1416 1418 1417 1419 1422 1421 1425 1432 1436 1437 1438 1437 1435 1436 1447 1457 1457 1453 1452 1456 1457 1448 1441 1437 1431 1429 1430 1430 1432 1433 1434 1437 1439 1443 1447 1450 1453 1457 1459
1454 1452 1452 1453 1453 1453 1452 1451 1450 1450 1450 1451 1452 1446 1438 1432 1427 1425 1423 1420 1420 1419 1417 1416 1414 1414 1414 1412 1412 1411 1410 1412 1415 1417 1413 1411 1411 1411 1411 1411 1411 1413 1413 1413 1415 1417 1421 1420 1414 1414 1417 1417 1416 1420 1421 1421 1424 1431 1435 1434 1433 1436 1438 1441 1451 1459 1458 1453 1454 1455 1447 1442 1441 1435 1432 1434 1434 1435 1435 1433 1436 1439 1441 1444 1447 1451 1454 1458
1454 1453 1453 1453 1453 1452 1452 1451 1451 1451 1450 1451 1449 1441 1435 1430 1424 1423 1423 1420 1419 1419 1418 1416 1416 1415 1413 1412 1411 1410 1411 1414 1415 1415 1411 1410 1411 1409 1409 1409 1409 1409 1410 1411 1413 1414 1415 1418 1415 1412 1414 1416 1415 1420 1425 1422 1420 1424 1428 1428 1431 1439 1443 1444 1448 1454 1458 1458 1454 1455 1453 1446 1440 1433 1429 1433 1434 1433 1435 1435 1435 1437 1438 1440 1444 1449 1454 1458
1454 1454 1454 1453 1453 1452 1451 1451 1450 1451 1451 1450 1447 1439 1434 1429 1423 1422 1422 1420 1419 1418 1417 1416 1415 1415 1413 1411 1410 1409 1411 1412 1412 1412 1408 1408 1409 1407 1406 1407 1406 1407 1409 1410 1413 1413 1413 1416 1417 1412 1411 1414 1416 1420 1423 1423 1421 1422 1423 1426 1429 1432 1437 1441 1445 1446 1450 1455 1454 1454 1454 1446 1434 1424 1419 1423 1428 1429 1432 1433 1432 1432 1433 1436 1441 1446 1451 1455
1455 1454 1455 1454 1453 1451 1451 1451 1450 1450 1450 1448 1444 1438 1433 1429 1423 1420 1419 1419 1418 1417 1417 1416 1414 1414 1413 1410 1407 1408 1411 1411 1409 1407 1405 1405 1407 1407 1406 1405 1404 1406 1408 1409 1411 1412 1412 1414 1416 1414 1412 1415 1417 1414 1414 1417 1421 1422 1424 1428 1429 1429 1432 1435 1441 1443 1441 1447 1452 1453 1451 1438 1423 1417 1413 1414 1421 1423 1424 1425 1426 1428 1431 1434 1438 1442 1447 1451
1456 1456 1456 1454 1453 1452 1452 1452 1450 1449 1448 1445 1442 1438 1433 1429 1425 1420 1417 1417 1417 1416 1416 1416 1415 1414 1414 1411 1408 1407 1409 1410 1407 1403 1402 1403 1405 1406 1404 1401 1402 1405 1407 1410 1411 1411 1412 1411 1413 1415 1415 1414 1411 1408 1409 1413 1417 1420 1424 1428 1427 1428 1433 1439 1445 1445 1439 1441 1446 1448 1443 1427 1414 1414 1414 1413 1416 1418 1418 1419 1422 1425 1429 1432 1437 1440 1445 1449
1457 1457 1457 1455 1454 1453 1453 1452 1450 1449 1448 1444 1441 1438 1433 1428 1425 1421 1417 1416 1416 1415 1416 1416 1415 1414 1414 1412 1410 1409 1409 1408 1404 1400 1399 1401 1401 1401 1400 1398 1401 1403 1405 1409 1409 1407 1409 1410 1411 1413 1413 1411 1408 1407 1410 1412 1415 1419 1420 1423 1425 1425 1430 1437 1443 1442 1439 1442 1445 1445 1438 1421 1413 1417 1416 1414 1416 1417 1419 1422 1425 1428 1430 1433 1437 1440 1445 1449
1459 1459 1457 1455 1454 1453 1453 1453 1450 1449 1447 1443 1439 1437 1432 1429 1426 1422 1418 1416 1416 1415 1415 1416 1415 1413 1412 1411 1411 1410 1408 1405 1404 1400 1398 1398 1397 1395 1396 1397 1400 1402 1404 1406 1406 1405 1407 1410 1411 1411 1410 1409 1409 1408 1409 1411 1415 1419 1419 1419 1422 1423 1424 1428 1433 1434 1436 1439 1439 1442 1437 1419 1413 1417 1415 1413 1415 1416 1420 1423 1426 1430 1433 1436 1439 1441 1446 1449
1460 1459 1457 1456 1455 1453 1454 1455 1453 1450 1446 1441 1437 1434 1430 1428 1426 1423 1419 1417 1417 1417 1417 1417 1415 1412 1411 1411 1410 1408 1405 1403 1402 1400 1398 1397 1395 1393 1395 1396 1399 1401 1402 1402 1402 1402 1405 1409 1410 1411 1414 1417 1418 1418 1417 1415 1415 1416 1417 1418 1419 1420 1423 1427 1431 1432 1434 1437 1435 1436 1431 1417 1413 1418 1414 1413 1416 1416 1419 1422 1424 1430 1433 1436 1440 1442 1446 1449
1461 1459 1457 1456 1455 1454 1455 1455 1455 1452 1447 1443 1439 1434 1430 1427 1425 1423 1421 1418 1417 1417 1417 1415 1413 1412 1411 1410 1409 1406 1402 1400 1400 1399 1397 1397 1395 1392 1393 1396 1398 1400 1399 1399 1399 1399 1403 1407 1407 1409 1415 1420 1422 1421 1416 1413 1412 1412 1414 1417 1418 1420 1422 1426 1431 1433 1434 1439 1438 1431 1423 1413 1414 1420 1416 1414 1417 1417 1419 1422 1424 1429 1433 1435 1439 1442 1446 1449
1463 1463 1460 1457 1455 1454 1455 1454 1454 1453 1450 1447 1442 1435 1432 1430 1425 1422 1421 1419 1417 1416 1415 1413 1411 1411 1411 1409 1406 1404 1400 1397 1397 1397 1398 1399 1397 1393 1393 1396 1398 1399 1398 1398 1399 1399 1402 1405 1404 1404 1407 1408 1408 1408 1405 1404 1409 1412 1413 1416 1417 1420 1422 1425 1430 1430 1429 1436 1435 1424 1418 1412 1412 1419 1419 1416 1417 1418 1420 1422 1423 1427 1431 1435 1439 1442 1446 1450
1466 1467 1466 1463 1458 1455 1454 1453 1453 1453 1451 1449 1445 1438 1435 1434 1428 1423 1420 1419 1418 1416 1414 1413 1412 1411 1412 1410 1406 1403 1400 1398 1396 1397 1399 1400 1397 1394 1394 1396 1398 1399 1398 1398 1398 1400 1402 1403 1403 1402 1401 1399 1397 1398 1399 1401 1406 1409 1412 1415 1416 1419 1423 1425 1428 1425 1425 1433 1430 1420 1421 1417 1407 1412 1419 1416 1416 1418 1419 1420 1422 1425 1430 1434 1439 1442 1445 1449
1468 1469 1469 1468 1465 1460 1457 1454 1453 1452 1450 1448 1445 1440 1437 1435 1432 1428 1424 1420 1418 1417 1415 1414 1413 1413 1413 1412 1408 1405 1403 1400 1398 1400 1402 1400 1397 1395 1395 1397 1399 1398 1398 1399 1397 1399 1402 1401 1401 1401 1398 1397 1396 1394 1394 1398 1402 1405 1408 1413 1416 1419 1422 1422 1423 1422 1420 1422 1419 1415 1420 1415 1404 1408 1416 1415 1416 1417 1417 1420 1423 1426 1431 1434 1438 1442 1444 1448
1470 1470 1469 1468 1467 1463 1460 1457 1454 1452 1450 1446 1443 1441 1439 1437 1433 1431 1429 1424 1420 1418 1416 1416 1415 1414 1414 1412 1408 1409 1408 1404 1403 1405 1405 1403 1399 1397 1399 1403 1402 1398 1399 1399 1396 1398 1400 1398 1399 1400 1396 1397 1398 1394 1392 1395 1401 1405 1407 1410 1412 1415 1418 1418 1419 1422 1420 1416 1416 1417 1418 1411 1406 1411 1416 1415 1417 1418 1419 1422 1425 1427 1431 1434 1437 1441 1444 1447
1474 1473 1471 1468 1466 1463 1459 1457 1455 1453 1450 1446 1444 1442 1440 1438 1435 1432 1430 1427 1424 1419 1417 1417 1416 1414 1415 1413 1410 1412 1412 1409 1409 1409 1408 1406 1403 1401 1404 1407 1405 1400 1399 1397 1396 1398 1399 1397 1398 1396 1394 1398 1400 1396 1393 1393 1398 1406 1410 1413 1415 1416 1419 1420 1420 1425 1423 1417 1421 1425 1420 1411 1410 1414 1415 1415 1417 1419 1420 1423 1425 1428 1431 1434 1437 1441 1444 1447
1476 1475 1473 1471 1467 1462 1459 1457 1455 1453 1450 1447 1446 1443 1441 1439 1437 1434 1429 1425 1424 1422 1418 1417 1415 1413 1413 1413 1411 1412 1411 1410 1410 1410 1409 1409 1407 1406 1407 1407 1407 1405 1402 1398 1396 1397 1397 1398 1397 1393 1393 1400 1401 1400 1398 1394 1397 1405 1409 1413 1416 1415 1416 1418 1418 1420 1418 1414 1421 1427 1419 1410 1411 1415 1415 1415 1417 1419 1421 1423 1425 1428 1431 1433 1436 1440 1443 1447
1475 1474 1473 1473 1469 1463 1460 1457 1454 1453 1450 1448 1447 1446 1443 1440 1437 1435 1431 1424 1421 1421 1419 1417 1415 1413 1413 1412 1410 1410 1408 1408 1408 1407 1407 1409 1408 1408 1407 1405 1406 1408 1405 1401 1397 1396 1396 1394 1392 1391 1395 1402 1404 1403 1400 1398 1405 1412 1409 1409 1413 1412 1411 1414 1415 1416 1416 1414 1417 1417 1410 1407 1411 1414 1414 1416 1417 1418 1420 1422 1424 1427 1430 1433 1436 1439 1442 1445